TimeCST,TemperatureF,Dew PointF,Humidity,Sea Level PressureIn,VisibilityMPH,Wind Direction,Wind SpeedMPH,Gust SpeedMPH,PrecipitationIn,Events,Conditions,WindDirDegrees,DateUTC
12:53 AM,37.9,27.0,65,30.14,10.0,SE,3.5,-,N/A,,Clear,130,2013-02-06 06:53:00
1:53 AM,34.0,27.0,75,30.14,10.0,East,5.8,-,N/A,,Clear,100,2013-02-06 07:53:00
3:53 AM,33.1,28.0,82,30.14,10.0,SE,4.6,-,N/A,,Clear,140,2013-02-06 09:53:00
4:53 AM,30.9,27.0,85,30.16,10.0,SSE,6.9,-,N/A,,Clear,150,2013-02-06 10:53:00
5:53 AM,32.0,28.0,85,30.15,10.0,SE,6.9,-,N/A,,Clear,130,2013-02-06 11:53:00
6:53 AM,32.0,27.0,82,30.15,10.0,SE,5.8,-,N/A,,Clear,130,2013-02-06 12:53:00
7:53 AM,34.0,28.9,82,30.17,10.0,SSE,10.4,-,N/A,,Clear,160,2013-02-06 13:53:00
8:53 AM,39.9,30.9,70,30.16,10.0,SE,12.7,-,N/A,,Clear,140,2013-02-06 14:53:00
9:53 AM,45.0,32.0,60,30.14,10.0,SE,13.8,-,N/A,,Clear,140,2013-02-06 15:53:00
10:53 AM,50.0,30.0,46,30.14,10.0,SSE,13.8,-,N/A,,Clear,150,2013-02-06 16:53:00
11:53 AM,54.0,30.9,41,30.10,10.0,SE,12.7,-,N/A,,Clear,130,2013-02-06 17:53:00
12:53 PM,57.0,32.0,39,30.07,10.0,ESE,10.4,-,N/A,,Clear,120,2013-02-06 18:53:00
1:53 PM,61.0,32.0,34,30.03,10.0,SSE,12.7,18.4,N/A,,Clear,150,2013-02-06 19:53:00
2:53 PM,61.0,32.0,34,30.00,10.0,SE,17.3,23.0,N/A,,Clear,140,2013-02-06 20:53:00
3:53 PM,60.1,32.0,35,29.99,10.0,SSE,12.7,-,N/A,,Partly Cloudy,150,2013-02-06 21:53:00
4:53 PM,59.0,33.1,38,29.98,10.0,SE,12.7,-,N/A,,Mostly Cloudy,140,2013-02-06 22:53:00
5:53 PM,55.9,33.1,42,29.98,10.0,SSE,12.7,-,N/A,,Mostly Cloudy,150,2013-02-06 23:53:00
6:53 PM,53.1,33.1,47,29.97,10.0,SSE,11.5,-,N/A,,Partly Cloudy,150,2013-02-07 00:53:00
7:53 PM,51.1,34.0,52,29.97,10.0,SSE,12.7,-,N/A,,Clear,160,2013-02-07 01:53:00
8:53 PM,51.1,34.0,52,29.97,10.0,SSE,13.8,-,N/A,,Clear,160,2013-02-07 02:53:00
9:53 PM,51.1,34.0,52,29.98,10.0,SSE,12.7,-,N/A,,Mostly Cloudy,160,2013-02-07 03:53:00
10:53 PM,51.1,34.0,52,29.97,10.0,SSE,11.5,-,N/A,,Overcast,160,2013-02-07 04:53:00
11:53 PM,50.0,34.0,54,29.96,10.0,South,10.4,-,N/A,,Overcast,170,2013-02-07 05:53:00